Time,TemperatureF,DewpointF,PressureIn,WindDirection,WindDirectionDegrees,WindSpeedMPH,WindSpeedGustMPH,Humidity,HourlyPrecipIn,Conditions,Clouds,dailyrainin,SoftwareType,DateUTC
2013-02-18 00:02:00,9.0,4.0,30.21,SW,232,0.0,-999.0,81,-99.99,,,-99.99,,2013-02-18 05:02:00,
2013-02-18 00:11:00,9.0,4.0,30.21,SW,232,0.0,-999.0,81,-99.99,,,-99.99,,2013-02-18 05:11:00,
2013-02-18 00:21:00,8.0,3.0,30.21,SW,232,0.0,-999.0,81,-99.99,,,-99.99,,2013-02-18 05:21:00,
2013-02-18 00:32:00,8.0,3.0,30.21,SW,232,0.0,-999.0,81,-99.99,,,-99.99,,2013-02-18 05:32:00,
2013-02-18 00:52:00,8.0,4.0,30.22,SW,229,0.0,-999.0,82,-99.99,,,-99.99,,2013-02-18 05:52:00,
2013-02-18 01:02:00,8.0,4.0,30.22,SW,229,0.0,-999.0,82,-99.99,,,-99.99,,2013-02-18 06:02:00,
2013-02-18 01:11:00,8.0,4.0,30.22,SW,229,0.0,-999.0,82,-99.99,,,-99.99,,2013-02-18 06:11:00,
2013-02-18 01:22:00,8.0,4.0,30.22,SW,229,0.0,-999.0,82,-99.99,,,-99.99,,2013-02-18 06:22:00,
2013-02-18 01:32:00,7.0,2.0,30.23,SW,229,0.0,-999.0,81,-99.99,,,-99.99,,2013-02-18 06:32:00,
2013-02-18 01:42:00,7.0,2.0,30.23,SW,229,0.0,-999.0,81,-99.99,,,-99.99,,2013-02-18 06:42:00,
2013-02-18 01:51:00,6.0,1.0,30.23,SW,229,0.0,-999.0,81,-99.99,,,-99.99,,2013-02-18 06:51:00,
2013-02-18 02:02:00,6.0,1.0,30.23,SW,229,0.0,-999.0,81,-99.99,,,-99.99,,2013-02-18 07:02:00,
2013-02-18 02:11:00,6.0,1.0,30.23,SW,229,0.0,-999.0,81,-99.99,,,-99.99,,2013-02-18 07:11:00,
2013-02-18 02:22:00,5.0,0.0,30.23,SW,229,0.0,-999.0,81,-99.99,,,-99.99,,2013-02-18 07:22:00,
2013-02-18 02:32:00,5.0,0.0,30.23,SW,229,0.0,-999.0,81,-99.99,,,-99.99,,2013-02-18 07:32:00,
2013-02-18 02:42:00,5.0,0.0,30.23,SW,229,0.0,-999.0,81,-99.99,,,-99.99,,2013-02-18 07:42:00,
2013-02-18 02:51:00,4.0,-1.0,30.23,SW,229,0.0,-999.0,81,-99.99,,,-99.99,,2013-02-18 07:51:00,
2013-02-18 03:02:00,4.0,0.0,30.23,SW,229,0.0,-999.0,82,-99.99,,,-99.99,,2013-02-18 08:02:00,
2013-02-18 03:11:00,4.0,0.0,30.23,SW,229,0.0,-999.0,82,-99.99,,,-99.99,,2013-02-18 08:11:00,
2013-02-18 03:21:00,4.0,0.0,30.24,SW,229,0.0,-999.0,82,-99.99,,,-99.99,,2013-02-18 08:21:00,
2013-02-18 03:33:00,4.0,0.0,30.24,SW,229,0.0,-999.0,82,-99.99,,,-99.99,,2013-02-18 08:33:00,
2013-02-18 03:42:00,4.0,0.0,30.24,SW,229,0.0,-999.0,82,-99.99,,,-99.99,,2013-02-18 08:42:00,
2013-02-18 03:52:00,4.0,0.0,30.24,SW,229,0.0,-999.0,82,-99.99,,,-99.99,,2013-02-18 08:52:00,
2013-02-18 04:03:00,4.0,0.0,30.25,SW,229,0.0,-999.0,82,-99.99,,,-99.99,,2013-02-18 09:03:00,
2013-02-18 04:11:00,4.0,0.0,30.25,SW,229,0.0,-999.0,82,-99.99,,,-99.99,,2013-02-18 09:11:00,
2013-02-18 04:22:00,4.0,0.0,30.24,SW,229,0.0,-999.0,82,-99.99,,,-99.99,,2013-02-18 09:22:00,
2013-02-18 04:32:00,3.0,-1.0,30.24,SW,229,0.0,-999.0,81,-99.99,,,-99.99,,2013-02-18 09:32:00,
2013-02-18 04:42:00,3.0,-1.0,30.24,SW,229,0.0,-999.0,81,-99.99,,,-99.99,,2013-02-18 09:42:00,
2013-02-18 04:52:00,3.0,-1.0,30.25,SW,229,0.0,-999.0,82,-99.99,,,-99.99,,2013-02-18 09:52:00,
2013-02-18 05:01:00,3.0,-1.0,30.24,SW,229,0.0,-999.0,82,-99.99,,,-99.99,,2013-02-18 10:01:00,
2013-02-18 05:12:00,3.0,-1.0,30.24,SW,229,0.0,-999.0,82,-99.99,,,-99.99,,2013-02-18 10:12:00,
2013-02-18 05:22:00,3.0,-1.0,30.24,SW,229,0.0,-999.0,81,-99.99,,,-99.99,,2013-02-18 10:22:00,
2013-02-18 05:32:00,3.0,-1.0,30.25,SW,229,0.0,-999.0,81,-99.99,,,-99.99,,2013-02-18 10:32:00,
2013-02-18 05:42:00,3.0,-1.0,30.25,SW,229,0.0,-999.0,81,-99.99,,,-99.99,,2013-02-18 10:42:00,
2013-02-18 05:52:00,2.0,-2.0,30.25,SW,229,0.0,-999.0,81,-99.99,,,-99.99,,2013-02-18 10:52:00,
2013-02-18 06:02:00,2.0,-2.0,30.26,SW,229,0.0,-999.0,81,-99.99,,,-99.99,,2013-02-18 11:02:00,
2013-02-18 06:12:00,2.0,-2.0,30.26,SW,229,0.0,-999.0,81,-99.99,,,-99.99,,2013-02-18 11:12:00,
2013-02-18 06:22:00,2.0,-2.0,30.27,SW,229,0.0,-999.0,81,-99.99,,,-99.99,,2013-02-18 11:22:00,
2013-02-18 06:33:00,3.0,-1.0,30.27,SW,229,0.0,-999.0,81,-99.99,,,-99.99,,2013-02-18 11:33:00,
2013-02-18 06:42:00,3.0,-1.0,30.27,SW,229,0.0,-999.0,81,-99.99,,,-99.99,,2013-02-18 11:42:00,
2013-02-18 06:52:00,3.0,-1.0,30.26,SW,229,0.0,-999.0,81,-99.99,,,-99.99,,2013-02-18 11:52:00,
2013-02-18 07:02:00,3.0,-1.0,30.27,SW,229,0.0,-999.0,81,-99.99,,,-99.99,,2013-02-18 12:02:00,
2013-02-18 07:12:00,3.0,-1.0,30.27,SW,229,0.0,-999.0,81,-99.99,,,-99.99,,2013-02-18 12:12:00,
2013-02-18 07:22:00,2.0,-3.0,30.27,SW,229,0.0,-999.0,80,-99.99,,,-99.99,,2013-02-18 12:22:00,
2013-02-18 07:32:00,2.0,-3.0,30.27,SW,229,0.0,-999.0,80,-99.99,,,-99.99,,2013-02-18 12:32:00,
2013-02-18 07:42:00,2.0,-3.0,30.27,SW,229,0.0,-999.0,80,-99.99,,,-99.99,,2013-02-18 12:42:00,
2013-02-18 07:52:00,2.0,-3.0,30.26,SW,229,0.0,-999.0,80,-99.99,,,-99.99,,2013-02-18 12:52:00,
2013-02-18 08:03:00,2.0,-2.0,30.27,SW,229,0.0,-999.0,81,-99.99,,,-99.99,,2013-02-18 13:03:00,
2013-02-18 08:12:00,2.0,-2.0,30.27,SW,229,0.0,-999.0,81,-99.99,,,-99.99,,2013-02-18 13:12:00,
2013-02-18 08:23:00,3.0,-1.0,30.26,SW,229,0.0,-999.0,81,-99.99,,,-99.99,,2013-02-18 13:23:00,
2013-02-18 08:32:00,4.0,-1.0,30.26,SW,229,0.0,-999.0,81,-99.99,,,-99.99,,2013-02-18 13:32:00,
2013-02-18 08:42:00,4.0,-1.0,30.26,SW,229,0.0,-999.0,81,-99.99,,,-99.99,,2013-02-18 13:42:00,
2013-02-18 08:53:00,4.0,-1.0,30.26,SW,229,0.0,-999.0,81,-99.99,,,-99.99,,2013-02-18 13:53:00,
2013-02-18 09:02:00,6.0,2.0,30.26,SW,229,0.0,-999.0,82,-99.99,,,-99.99,,2013-02-18 14:02:00,
2013-02-18 09:12:00,6.0,2.0,30.26,SW,229,0.0,-999.0,82,-99.99,,,-99.99,,2013-02-18 14:12:00,
2013-02-18 09:22:00,8.0,4.0,30.25,South,172,0.0,-999.0,83,-99.99,,,-99.99,,2013-02-18 14:22:00,
2013-02-18 09:33:00,13.0,9.0,30.24,SSW,196,3.0,-999.0,82,-99.99,,,-99.99,,2013-02-18 14:33:00,
2013-02-18 09:42:00,13.0,9.0,30.24,SSW,196,3.0,-999.0,82,-99.99,,,-99.99,,2013-02-18 14:42:00,
2013-02-18 09:53:00,16.0,9.0,30.23,ESE,102,2.0,-999.0,72,-99.99,,,-99.99,,2013-02-18 14:53:00,
2013-02-18 10:02:00,18.0,8.0,30.22,SE,143,3.0,-999.0,65,-99.99,,,-99.99,,2013-02-18 15:02:00,
2013-02-18 10:12:00,18.0,8.0,30.22,SE,143,3.0,-999.0,65,-99.99,,,-99.99,,2013-02-18 15:12:00,
2013-02-18 10:22:00,18.0,7.0,30.21,SSW,213,4.0,-999.0,62,-99.99,,,-99.99,,2013-02-18 15:22:00,
2013-02-18 10:32:00,20.0,8.0,30.21,SSW,202,5.0,-999.0,59,-99.99,,,-99.99,,2013-02-18 15:32:00,
2013-02-18 10:42:00,20.0,8.0,30.21,SSW,202,5.0,-999.0,59,-99.99,,,-99.99,,2013-02-18 15:42:00,
2013-02-18 10:52:00,21.0,8.0,30.20,South,174,6.0,-999.0,56,-99.99,,,-99.99,,2013-02-18 15:52:00,
2013-02-18 11:03:00,23.0,9.0,30.19,SE,131,3.0,-999.0,54,-99.99,,,-99.99,,2013-02-18 16:03:00,
2013-02-18 11:12:00,23.0,9.0,30.19,SE,131,3.0,-999.0,54,-99.99,,,-99.99,,2013-02-18 16:12:00,
2013-02-18 11:22:00,24.0,9.0,30.18,SE,130,4.0,-999.0,52,-99.99,,,-99.99,,2013-02-18 16:22:00,
2013-02-18 11:33:00,25.0,9.0,30.17,South,184,5.0,-999.0,50,-99.99,,,-99.99,,2013-02-18 16:33:00,
2013-02-18 11:43:00,25.0,9.0,30.17,South,184,5.0,-999.0,50,-99.99,,,-99.99,,2013-02-18 16:43:00,
2013-02-18 11:52:00,26.0,9.0,30.17,SE,143,3.0,-999.0,47,-99.99,,,-99.99,,2013-02-18 16:52:00,
2013-02-18 12:04:00,27.0,9.0,30.16,South,172,3.0,-999.0,47,-99.99,,,-99.99,,2013-02-18 17:04:00,
2013-02-18 12:12:00,27.0,9.0,30.16,South,172,3.0,-999.0,47,-99.99,,,-99.99,,2013-02-18 17:12:00,
2013-02-18 12:22:00,27.0,9.0,30.15,South,181,6.0,-999.0,47,-99.99,,,-99.99,,2013-02-18 17:22:00,
2013-02-18 12:33:00,29.0,10.0,30.14,SSE,167,3.0,-999.0,45,-99.99,,,-99.99,,2013-02-18 17:33:00,
2013-02-18 12:43:00,29.0,10.0,30.14,SSE,167,3.0,-999.0,45,-99.99,,,-99.99,,2013-02-18 17:43:00,
2013-02-18 12:52:00,29.0,9.0,30.13,SE,136,4.0,-999.0,43,-99.99,,,-99.99,,2013-02-18 17:52:00,
2013-02-18 13:03:00,31.0,11.0,30.11,SSW,198,2.0,-999.0,43,-99.99,,,-99.99,,2013-02-18 18:03:00,
2013-02-18 13:13:00,31.0,11.0,30.11,SSW,198,2.0,-999.0,43,-99.99,,,-99.99,,2013-02-18 18:13:00,
2013-02-18 13:23:00,31.0,11.0,30.11,SSE,158,4.0,-999.0,43,-99.99,,,-99.99,,2013-02-18 18:23:00,
2013-02-18 13:33:00,31.0,12.0,30.10,East,85,5.0,-999.0,44,-99.99,,,-99.99,,2013-02-18 18:33:00,
2013-02-18 13:43:00,31.0,12.0,30.10,East,85,5.0,-999.0,44,-99.99,,,-99.99,,2013-02-18 18:43:00,
2013-02-18 13:52:00,32.0,13.0,30.08,SE,141,6.0,-999.0,44,-99.99,,,-99.99,,2013-02-18 18:52:00,
2013-02-18 14:03:00,33.0,12.0,30.08,South,169,5.0,-999.0,41,-99.99,,,-99.99,,2013-02-18 19:03:00,
2013-02-18 14:13:00,33.0,12.0,30.08,South,169,5.0,-999.0,41,-99.99,,,-99.99,,2013-02-18 19:13:00,
2013-02-18 14:22:00,33.0,12.0,30.06,SSE,151,3.0,-999.0,42,-99.99,,,-99.99,,2013-02-18 19:22:00,
2013-02-18 14:33:00,33.0,14.0,30.05,SSE,151,4.0,-999.0,45,-99.99,,,-99.99,,2013-02-18 19:33:00,
2013-02-18 14:43:00,33.0,14.0,30.05,SSE,151,4.0,-999.0,45,-99.99,,,-99.99,,2013-02-18 19:43:00,
2013-02-18 14:52:00,34.0,13.0,30.04,SE,140,5.0,-999.0,42,-99.99,,,-99.99,,2013-02-18 19:52:00,
2013-02-18 15:03:00,34.0,13.0,30.03,SSE,151,5.0,-999.0,42,-99.99,,,-99.99,,2013-02-18 20:03:00,
2013-02-18 15:13:00,34.0,13.0,30.03,SSE,151,5.0,-999.0,42,-99.99,,,-99.99,,2013-02-18 20:13:00,
2013-02-18 15:23:00,35.0,15.0,30.02,SSE,158,6.0,-999.0,43,-99.99,,,-99.99,,2013-02-18 20:23:00,
2013-02-18 15:33:00,35.0,15.0,30.02,SSE,152,4.0,-999.0,43,-99.99,,,-99.99,,2013-02-18 20:33:00,
2013-02-18 15:42:00,35.0,15.0,30.02,SSE,152,4.0,-999.0,43,-99.99,,,-99.99,,2013-02-18 20:42:00,
2013-02-18 15:52:00,35.0,14.0,30.01,ESE,102,3.0,-999.0,42,-99.99,,,-99.99,,2013-02-18 20:52:00,
2013-02-18 16:03:00,36.0,15.0,30.00,SSE,154,5.0,-999.0,42,-99.99,,,-99.99,,2013-02-18 21:03:00,
2013-02-18 16:12:00,36.0,15.0,30.00,SSE,154,5.0,-999.0,42,-99.99,,,-99.99,,2013-02-18 21:12:00,
2013-02-18 16:22:00,35.0,15.0,30.00,SSE,154,5.0,-999.0,44,-99.99,,,-99.99,,2013-02-18 21:22:00,
2013-02-18 16:33:00,35.0,16.0,29.99,SE,130,3.0,-999.0,46,-99.99,,,-99.99,,2013-02-18 21:33:00,
2013-02-18 16:43:00,35.0,16.0,29.99,SE,130,3.0,-999.0,46,-99.99,,,-99.99,,2013-02-18 21:43:00,
2013-02-18 16:52:00,35.0,16.0,29.99,South,182,3.0,-999.0,46,-99.99,,,-99.99,,2013-02-18 21:52:00,
2013-02-18 17:03:00,35.0,16.0,29.98,South,191,5.0,-999.0,46,-99.99,,,-99.99,,2013-02-18 22:03:00,
2013-02-18 17:13:00,35.0,16.0,29.98,SSW,213,4.0,-999.0,46,-99.99,,,-99.99,,2013-02-18 22:13:00,
2013-02-18 17:23:00,35.0,16.0,29.98,SSW,213,4.0,-999.0,46,-99.99,,,-99.99,,2013-02-18 22:23:00,
2013-02-18 17:33:00,35.0,17.0,29.98,East,83,4.0,-999.0,48,-99.99,,,-99.99,,2013-02-18 22:33:00,
2013-02-18 17:43:00,35.0,17.0,29.98,East,83,4.0,-999.0,48,-99.99,,,-99.99,,2013-02-18 22:43:00,
2013-02-18 17:53:00,35.0,17.0,29.98,SE,140,2.0,-999.0,48,-99.99,,,-99.99,,2013-02-18 22:53:00,
2013-02-18 18:03:00,34.0,16.0,29.98,SE,138,3.0,-999.0,48,-99.99,,,-99.99,,2013-02-18 23:03:00,
2013-02-18 18:12:00,34.0,16.0,29.98,SE,138,3.0,-999.0,48,-99.99,,,-99.99,,2013-02-18 23:12:00,
2013-02-18 18:23:00,34.0,17.0,29.97,SE,124,2.0,-999.0,49,-99.99,,,-99.99,,2013-02-18 23:23:00,
2013-02-18 18:34:00,34.0,17.0,29.97,SSE,168,1.0,-999.0,49,-99.99,,,-99.99,,2013-02-18 23:34:00,
2013-02-18 18:43:00,34.0,17.0,29.97,SSE,168,1.0,-999.0,49,-99.99,,,-99.99,,2013-02-18 23:43:00,
2013-02-18 18:52:00,34.0,17.0,29.97,SSE,147,2.0,-999.0,50,-99.99,,,-99.99,,2013-02-18 23:52:00,
2013-02-18 19:03:00,34.0,18.0,29.96,South,188,3.0,-999.0,51,-99.99,,,-99.99,,2013-02-19 00:03:00,
2013-02-18 19:13:00,34.0,18.0,29.96,South,188,3.0,-999.0,51,-99.99,,,-99.99,,2013-02-19 00:13:00,
2013-02-18 19:23:00,34.0,17.0,29.96,South,182,4.0,-999.0,50,-99.99,,,-99.99,,2013-02-19 00:23:00,
2013-02-18 19:35:00,34.0,17.0,29.95,SSW,203,3.0,-999.0,50,-99.99,,,-99.99,,2013-02-19 00:35:00,
2013-02-18 19:43:00,34.0,17.0,29.95,SSW,203,3.0,-999.0,50,-99.99,,,-99.99,,2013-02-19 00:43:00,
2013-02-18 19:53:00,35.0,19.0,29.93,SSE,164,3.0,-999.0,51,-99.99,,,-99.99,,2013-02-19 00:53:00,
2013-02-18 20:03:00,35.0,18.0,29.93,SSW,195,3.0,-999.0,50,-99.99,,,-99.99,,2013-02-19 01:03:00,
2013-02-18 20:14:00,35.0,18.0,29.93,SSW,195,3.0,-999.0,50,-99.99,,,-99.99,,2013-02-19 01:14:00,
2013-02-18 20:24:00,36.0,19.0,29.93,SE,133,5.0,-999.0,50,-99.99,,,-99.99,,2013-02-19 01:24:00,
2013-02-18 20:35:00,36.0,19.0,29.92,SSW,200,3.0,-999.0,50,-99.99,,,-99.99,,2013-02-19 01:35:00,
2013-02-18 20:44:00,36.0,19.0,29.92,SSW,200,3.0,-999.0,50,-99.99,,,-99.99,,2013-02-19 01:44:00,
2013-02-18 20:54:00,36.0,19.0,29.91,SE,136,6.0,-999.0,50,-99.99,,,-99.99,,2013-02-19 01:54:00,
2013-02-18 21:04:00,37.0,21.0,29.90,South,179,5.0,-999.0,51,-99.99,,,-99.99,,2013-02-19 02:04:00,
2013-02-18 21:14:00,37.0,21.0,29.90,South,179,5.0,-999.0,51,-99.99,,,-99.99,,2013-02-19 02:14:00,
2013-02-18 21:23:00,38.0,21.0,29.89,SW,222,6.0,-999.0,50,-99.99,,,-99.99,,2013-02-19 02:23:00,
2013-02-18 21:35:00,37.0,20.0,29.86,SSE,152,5.0,-999.0,50,-99.99,,,-99.99,,2013-02-19 02:35:00,
2013-02-18 21:43:00,37.0,20.0,29.86,SSE,152,5.0,-999.0,50,-99.99,,,-99.99,,2013-02-19 02:43:00,
2013-02-18 21:53:00,38.0,22.0,29.86,South,175,5.0,-999.0,51,-99.99,,,-99.99,,2013-02-19 02:53:00,
2013-02-18 22:07:00,38.0,22.0,29.86,South,185,5.0,-999.0,52,-99.99,,,-99.99,,2013-02-19 03:07:00,
2013-02-18 22:15:00,38.0,22.0,29.86,South,185,5.0,-999.0,52,-99.99,,,-99.99,,2013-02-19 03:15:00,
2013-02-18 22:24:00,38.0,22.0,29.85,SSE,161,4.0,-999.0,52,-99.99,,,-99.99,,2013-02-19 03:24:00,
2013-02-18 22:35:00,39.0,23.0,29.83,SE,124,4.0,-999.0,53,-99.99,,,-99.99,,2013-02-19 03:35:00,
2013-02-18 22:45:00,39.0,23.0,29.83,SE,124,4.0,-999.0,53,-99.99,,,-99.99,,2013-02-19 03:45:00,
2013-02-18 22:53:00,39.0,24.0,29.82,SE,124,4.0,-999.0,54,-99.99,,,-99.99,,2013-02-19 03:53:00,
2013-02-18 23:03:00,40.0,25.0,29.80,South,185,4.0,-999.0,54,-99.99,,,-99.99,,2013-02-19 04:03:00,
2013-02-18 23:14:00,40.0,25.0,29.80,South,185,4.0,-999.0,54,-99.99,,,-99.99,,2013-02-19 04:14:00,
2013-02-18 23:24:00,41.0,26.0,29.80,SSW,205,5.0,-999.0,54,-99.99,,,-99.99,,2013-02-19 04:24:00,
2013-02-18 23:34:00,41.0,26.0,29.80,SSW,205,5.0,-999.0,54,-99.99,,,-99.99,,2013-02-19 04:34:00,
2013-02-18 23:44:00,41.0,26.0,29.80,SSW,205,5.0,-999.0,54,-99.99,,,-99.99,,2013-02-19 04:44:00,
2013-02-18 23:53:00,41.0,26.0,29.78,South,186,4.0,-999.0,54,-99.99,,,-99.99,,2013-02-19 04:53:00,